Flag for Canada Weather past 2 weeks in Bathurst, New Brunswick, Canada

Now
52 °F

Passing clouds.


Feels Like: 49 °F
Forecast: N/A
Wind: 8 mph from Northwest

Location: Bathurst Airport

Current Time: Sep 19, 2014 at 5:36:58 PM

Latest Report: Sep 19, 2014 at 5:00 PM


Visibility: 15 mi

Pressure: 30.27 "Hg

Humidity: 30%

Dew point: 21 °F

Location of BathurstLocation

Historic Weather in Bathurst — Graph

°F

Bathurst temperature yesterday

Maximum temperature yesterday: 52 °F (at 2:00 PM)
Minimum temperature yesterday: 37 °F (at 11:00 PM)
Average temperature yesterday: 46 °F

Past Weeks' High & Low Weather Summary

 TemperatureHumidityPressure
High81 °F (Sep 6, 11:00 AM)100% (Sep 4, 11:00 PM)30.45 "Hg (Sep 4, 11:00 PM)
Low34 °F (Sep 19, 3:00 AM)30% (Sep 8, 3:00 PM)29.59 "Hg (Sep 12, 1:00 AM)
Average54 °F75%30.02 "Hg
* Reported Sep 4 4:00 PM — Sep 19 4:00 PM, Bathurst, Weather by CustomWeather, © 2014

Note: Actual official high and low records may vary slightly from our data, if they occured in-between our weather recording intervals... More about our weather records

Advertising

Bathurst weather history for previous 24 hours

 ConditionsComfort  
Time TempWeatherWind HumidityBarometerVisibility
4:00 PM
Sep 19
52 °FPassing clouds.13 mph30%30.27 "Hg15 mi
3:00 PM52 °FPassing clouds.9 mph32%30.27 "Hg15 mi
2:00 PM50 °FPassing clouds.16 mph30%30.26 "Hg15 mi
1:00 PM48 °FPassing clouds.15 mph32%30.26 "Hg15 mi
12:00 PM46 °FPassing clouds.15 mph43%30.26 "Hg15 mi
11:00 AM45 °FPassing clouds.9 mph49%30.24 "Hg15 mi
10:00 AM43 °FPassing clouds.15 mph57%30.22 "Hg15 mi
9:00 AM39 °FPassing clouds.14 mph70%30.19 "Hg15 mi
8:00 AM36 °FPassing clouds.12 mph75%30.17 "Hg15 mi
7:00 AM34 °FPassing clouds.14 mph81%30.14 "Hg15 mi
6:00 AM36 °FClear.13 mph75%30.12 "Hg15 mi
5:00 AM36 °FClear.10 mph75%30.09 "Hg15 mi
4:00 AM36 °FClear.12 mph70%30.08 "Hg15 mi
3:00 AM34 °FClear.7 mph75%30.07 "Hg15 mi
2:00 AM36 °FClear.8 mph70%30.06 "Hg15 mi
1:00 AM36 °FClear.5 mph70%30.06 "Hg15 mi
12:00 AM36 °FClear.7 mph75%30.05 "Hg15 mi
11:00 PM
Sep 18
37 °FClear.7 mph75%30.05 "Hg15 mi
10:00 PM39 °FClear.7 mph70%30.03 "Hg15 mi
9:00 PM39 °FClear.5 mph81%30.03 "Hg15 mi
8:00 PM43 °FPassing clouds.3 mph71%30.00 "Hg15 mi
7:00 PM48 °FBroken clouds.6 mph58%29.98 "Hg15 mi
6:00 PM48 °FBroken clouds.8 mph58%29.96 "Hg15 mi
5:00 PM52 °FPartly sunny.12 mph50%29.94 "Hg15 mi
Weather by CustomWeather, © 2014

See weather overviewHow to use our weather pages